Regional Weather Roundup
Issued by NWS Lake Charles, LA

Current Version | Previous Version | Text Only | Print | Product List | Glossary On
Versions: 1 2 3 4 5 6 7 8 9 10 11 12 13 14 15 16 17 18 19 20 21 22 23 24 25 26 27
000
ASUS44 KLCH 310910
RWRLCH
RWRLCH
REGIONAL WEATHER ROUNDUP
NATIONAL WEATHER SERVICE LAKE CHARLES LA
400 AM CDT FRI OCT 31 2014

Note: "fair" indicates few or no clouds below 12,000 feet with no
significant weather and/or obstructions to visibility.


ACROSS SOUTHEAST TEXAS

CITY           SKY/WX    TMP DP  RH WIND       PRES   REMARKS
BEAUMONT       CLEAR     54  52  93 CALM      30.08S
BEAUMONT CITY    N/A     52  51  94 CALM      30.09S
ORANGE         SUNNY    N/A N/A N/A CALM      30.10S
JASPER         CLEAR     48  47  97 CALM      30.11S
$$

ACROSS CENTRAL LOUISIANA

CITY           SKY/WX    TMP DP  RH WIND       PRES   REMARKS
LEESVILLE      CLEAR     51  50  96 NW2       30.07F
FULLERTON      NOT AVBL
ALEXANDRIA INT CLEAR     47  45  93 CALM      30.05F
ESLER FIELD    CLEAR     46  44  93 CALM      30.06F
DERIDDER         N/A     51  48  91 CALM      30.09F
OAKDALE        SUNNY     46  45  95 CALM      30.07F
OPELOUSAS        N/A     47  46  97 CALM      30.06F
$$

ACROSS SOUTHWEST AND SOUTH CENTRAL LOUISIANA

CITY           SKY/WX    TMP DP  RH WIND       PRES   REMARKS
SULPHUR        SUNNY     52  50  93 NW3       30.08S
LAKE CHARLES   CLEAR     52  50  93 CALM      30.07F
CHENNAULT INT  PTCLDY    53  49  87 CALM      30.08S
CAMERON PHI    SUNNY     61  55  82 CALM      30.10S
DEQUINCY       PTSUNNY   49  49  97 CALM      30.08F
JENNINGS       PTSUNNY   52  51  97 CALM      30.07F
LAFAYETTE      PTCLDY    52  47  83 CALM      30.06F
NEW IBERIA     CLEAR     52  49  89 NW3       30.07F
ABBEVILLE        N/A     47  46  94 NW3       30.07S
PATTERSON      CLEAR     54  48  82 N3        30.08S
SALT POINT       N/A     58  52  80 CALM      30.05S
$$

SELECTED SITES ACROSS THE REGION

CITY           SKY/WX    TMP DP  RH WIND       PRES   REMARKS
HOUSTON BUSH   PTCLDY    59  54  83 CALM      30.10S
HOUSTON HOBBY  MOCLDY    65  57  75 CALM      30.09S
GALVESTON      CLEAR     68  59  73 NE6       30.10S
COLLEGE STAT   CLEAR     60  50  69 N6        30.13R
CONROE         CLEAR     54  52  93 CALM      30.11F
HUNTSVILLE     CLEAR     55  47  74 CALM      30.12S
LUFKIN         CLEAR     54  50  86 NW3       30.10F
SHREVEPORT     CLEAR     53  47  79 NW8       30.08S
MONROE         CLEAR     53  46  77 NW5       30.05F
NATCHEZ MS     CLEAR     46  43  87 S3        30.05F
BATON ROUGE    CLEAR     48  45  89 CALM      30.04F
N.O. INTL ARPT PTCLDY    56  48  74 NW3       30.04S
SLIDELL        CLEAR     46  42  86 CALM      30.03S
$$

MARINE REPORTS

STATION/POSITION TIME  TEMP    WIND        PRES    VSBY  WAVE
                       AIR SEA DIR/SP/G                  HT/PER
                 (UTC) (F)     (DEG/KT/KT) (MB)    (MI)  (FT/S)
BUOY 30 S HIGH I 0900   72 77  360/ 10/ 12 1018.3R         1/ 5
SEA RIM ST PARK  0900   60     330/  5/  6 1019.1F
PORT ARTHUR      0900      75   30/  1/  3 1018.5F
SABINE PASS N    0900   64 74   20/  2/  3 1018.5F
TEXAS POINT      0900   64 74  360/  5/  6 1018.6F
CALCASIEU PASS   0900   64 74  360/  3/  4   N/A
LK CHARLES BEACH 0900   58 76              1018.4S
MARSH ISLAND     NOT AVBL
FRESH WATER LOCK 0900   57 76  340/  4/  6 1017.8F
AMERADA PASS     0900   58 68  350/  3/  5 1017.5S
$$



USA.gov is the U.S. government's official web portal to all federal, state and local government web resources and services.